Tracking 31027 objects as of 18-Jul-2025
HD Live streaming from Space Station
objects crossing your sky now

BRO-6

Track BRO-6 now!
10-day predictions
BRO-6 is classified as:


NORAD ID: 52422
Int'l Code: 2022-047AE
Perigee: 459.8 km
Apogee: 467.3 km
Inclination: 97.4 °
Period: 93.7 minutes
Semi major axis: 6834 km
RCS: Unknown
Launch date: May 2, 2022
Source: France (FR)
Launch site: Rocket Lab Launch Complex (RLLC)

Uplink (MHz):
Downlink (MHz): 401.735
Beacon (MHz):
Mode: 9600bps FSK
Call sign:
Status: Active

Your satellite tracking list
Your tracking list is empty




NASA's NSSDC Master Catalog

Two Line Element Set (TLE):
1 52422U 22047AE  25199.81574030  .00009691  00000-0  27402-3 0  9997
2 52422  97.3637 283.1280 0005498 177.6663 182.4608 15.36520187179765
Source of the keplerian elements: AFSPC